Regional Weather Roundup
Issued by NWS Jackson, KY

Home | Current Version | Previous Version | Text Only | Print | Product List | Glossary On
Versions: 1 2 3 4 5 6 7 8 9 10 11 12 13 14 15 16 17 18 19 20 21 22 23 24 25 26 27 28 29 30 31 32 33 34 35 36 37 38 39 40 41 42 43 44 45 46 47 48 49 50
000
ASUS43 KJKL 280710
RWRJKL

EAST KENTUCKY HOURLY WEATHER ROUNDUP
NATIONAL WEATHER SERVICE JACKSON KY
200 AM EST SAT FEB 28 2015

NOTE: "FAIR" INDICATES FEW OR NO CLOUDS BELOW 12,000 FEET WITH
NO SIGNIFICANT WEATHER AND/OR OBSTRUCTIONS TO VISIBILITY.

* THESE REPORTS ARE NOT UNDER NWS QUALITY CONTROL AND MAY NOT
  REPORT WEATHER SUCH AS PRECIPITATION AND FOG.

KYZ079-080-083-085-087-088-110-112-115-119-120-280800
...EASTERN KENTUCKY...

CITY           SKY/WX    TMP DP  RH WIND       PRES   REMARKS
JACKSON        CLOUDY    18   6  59 NE5       30.58R WCI  11
LONDON         CLOUDY    20   5  52 NE6       30.57S WCI  12
SOMERSET*      CLOUDY    19   9  63 NE6       30.60F WCI  11
MONTICELLO*    MOCLDY    20   9  62 NE5       30.61F WCI  14
MIDDLESBORO*   CLOUDY    23  14  69 CALM      30.56S
HAZARD APT*    CLOUDY    21   9  58 CALM      30.59R
BLACK MTN*       N/A     16  12  86 S3          N/A
PIKEVILLE APT* CLOUDY    18   7  62 NE5       30.57S WCI  11
BIG SANDY*     CLOUDY    19   8  62 NE6       30.61R WCI  10
MOREHEAD APT*  CLOUDY    14   1  57 NE6       30.67R WCI   5
$$

KYZ035-036-041-042-044-050-067-078-099-280800
...CENTRAL KENTUCKY...

CITY           SKY/WX    TMP DP  RH WIND       PRES   REMARKS
MT STERLING*   PTCLDY    16   5  62 E7        30.64F WCI   6
FLEMING/MASON* CLEAR     10   1  67 E6        30.68R WCI   1
DANVILLE*      CLOUDY    18   9  68 E6        30.61S WCI   9
RICHMOND*      MOCLDY    16   5  62 NE5       30.60S WCI   9
LEXINGTON      PTCLDY    16   4  59 E10       30.62F WCI   4
FRANKFORT        N/A     16   3  56 NE7       30.63S WCI   6
$$

KYZ091>093-OHZ055-061-077-WVZ005-015-034-035-042-280800
...SOUTHERN OHIO/WEST VIRGINIA...

CITY           SKY/WX    TMP DP  RH WIND       PRES   REMARKS
COLUMBUS       MOCLDY     5  -3  69 CALM      30.69R
DAYTON         MOCLDY    10  -1  61 SE6       30.67R WCI   0
WILMINGTON     PTCLDY     3  -6  66 E3        30.66R
HUNTINGTON     CLEAR     13   3  64 NE5       30.66R WCI   5
CHARLESTON     PTCLDY    15   6  67 NE3       30.65R
PINEVILLE*     CLEAR      8   7  94 MISG      30.61R
BECKLEY        PTCLDY     5   0  79 SE3       30.50R
BLUEFIELD      CLEAR     12   4  70 E3        30.48R
$$

VAZ002-007-008-TNZ017-027-036-066-071-280800
...SOUTHWEST VIRGINIA/EAST TENNESSEE...

CITY           SKY/WX    TMP DP  RH WIND       PRES   REMARKS
WISE*          CLOUDY    16   7  67 NE3       30.48R
JONESVILLE*    CLOUDY    16  10  79 NE3       30.56S
ABINGDON*      MOCLDY    20  10  66 E5        30.49S WCI  13
BRISTOL        PTCLDY    18  13  80 CALM      30.53R
KNOXVILLE      MOCLDY    25  12  58 N9        30.53S WCI  15
OAK RIDGE      CLOUDY    27  10  49 VRB6      30.55S WCI  20
CROSSVILLE     CLOUDY    20   9  62 NE8       30.48S WCI  10
NASHVILLE      CLOUDY    25   8  48 NE9       30.57F WCI  15
$$

...KEY TO REMARKS...
VSB - VISIBILITY IN MILES
WCI - WIND CHILL INDEX
HX  - HEAT INDEX

$$


USA.gov is the U.S. government's official web portal to all federal, state and local government web resources and services.